Flag for Australia Weather past 2 weeks in Darwin, Northern Territory, Australia

Now
88 °F

Sunny.


Feels Like: 85 °F
Forecast: 68 / 87 °F
Wind: 10 mph from Southeast

Location: Darwin Airport

Current Time: Jul 3, 2015 at 3:51:45 PM

Latest Report: Jul 3, 2015 at 3:00 PM


Visibility: 10 mi

Pressure: 29.89 "Hg

Humidity: 29%

Dew point: 52 °F

Location of DarwinLocation

Historic Weather in Darwin — Graph

°F

Darwin temperature yesterday

Maximum temperature yesterday: 90 °F (at 2:30 PM)
Minimum temperature yesterday: 73 °F (at 6:30 AM)
Average temperature yesterday: 80 °F

Past Weeks' High & Low Weather Summary

 TemperatureHumidityPressure
High93 °F (Jun 18, 2:30 PM)100% (Jun 24, 4:30 AM)30.09 "Hg (Jun 24, 4:30 AM)
Low63 °F (Jun 22, 6:00 AM)10% (Jun 20, 3:30 PM)29.80 "Hg (Jun 18, 2:30 PM)
Average77 °F53%29.97 "Hg
* Reported Jun 18 2:30 PM — Jul 3 2:30 PM, Darwin, Weather by CustomWeather, © 2015

Note: Actual official high and low records may vary slightly from our data, if they occured in-between our weather recording intervals... More about our weather records

Advertising

Darwin weather history for previous 24 hours

 ConditionsComfort  
Time TempWeatherWind HumidityBarometerVisibility
2:30 PM
Fri, Jul 3
88 °FSunny.14 mph29%29.89 "Hg10 mi
2:00 PM88 °FSunny.15 mph27%29.92 "Hg10 mi
1:30 PM88 °FSunny.15 mph31%29.92 "Hg10 mi
1:00 PM86 °FSunny.16 mph33%29.95 "Hg10 mi
12:30 PM86 °FSunny.17 mph33%29.95 "Hg10 mi
12:00 PM84 °FPartly sunny.16 mph35%29.98 "HgN/A
11:30 AM82 °FPartly sunny.18 mph40%30.01 "HgN/A
11:00 AM84 °FPartly sunny.18 mph37%30.01 "HgN/A
10:30 AM81 °FPartly sunny.18 mph45%30.01 "HgN/A
10:00 AM81 °FSunny.12 mph45%30.01 "Hg10 mi
9:30 AM79 °FSunny.13 mph48%30.01 "Hg10 mi
9:00 AM77 °FSunny.12 mph54%30.01 "Hg10 mi
8:30 AM77 °FSunny.9 mph54%30.01 "Hg10 mi
8:00 AM73 °FSunny.9 mph65%30.01 "Hg10 mi
7:30 AM73 °FMild.9 mph65%30.01 "HgN/A
7:00 AM73 °FPassing clouds.9 mph61%29.98 "HgN/A
6:30 AM75 °FClear.9 mph57%29.98 "Hg10 mi
6:00 AM73 °FClear.9 mph65%29.98 "Hg10 mi
5:30 AM72 °FClear.7 mph78%29.98 "Hg10 mi
5:00 AM72 °FClear.8 mph78%29.98 "Hg10 mi
4:30 AM72 °FClear.8 mph78%29.98 "Hg10 mi
4:00 AM72 °FClear.8 mph83%29.98 "Hg10 mi
3:30 AM72 °FClear.6 mph88%29.98 "Hg10 mi
3:00 AM73 °FClear.7 mph83%29.98 "Hg10 mi
2:30 AM73 °FClear.5 mph83%29.98 "Hg10 mi
2:00 AM73 °FClear.3 mph83%29.98 "Hg10 mi
1:30 AM75 °FClear.5 mph78%30.01 "Hg10 mi
1:00 AM73 °FClear.6 mph83%29.98 "Hg10 mi
12:30 AM73 °FClear.7 mph78%30.01 "Hg10 mi
12:00 AM73 °FClear.3 mph78%29.98 "Hg10 mi
11:30 PM
Thu, Jul 2
73 °FClear.5 mph78%29.98 "Hg10 mi
11:00 PM75 °FClear.7 mph74%29.98 "Hg10 mi
10:30 PM75 °FClear.7 mph74%29.98 "Hg10 mi
10:00 PM75 °FClear.7 mph69%29.98 "Hg10 mi
9:30 PM75 °FClear.8 mph65%29.98 "Hg10 mi
9:00 PM77 °FClear.8 mph57%29.98 "Hg10 mi
8:30 PM77 °FClear.8 mph57%29.95 "Hg10 mi
8:00 PM79 °FClear.8 mph51%29.95 "Hg10 mi
7:30 PM79 °FClear.8 mph51%29.95 "Hg10 mi
7:00 PM81 °FSunny.10 mph48%29.92 "Hg10 mi
6:30 PM82 °FSunny.12 mph45%29.92 "Hg10 mi
6:00 PM82 °FSunny.13 mph48%29.92 "Hg10 mi
5:30 PM86 °FSunny.14 mph43%29.89 "Hg10 mi
5:00 PM88 °FSunny.12 mph38%29.89 "Hg10 mi
4:30 PM90 °FSunny.16 mph27%29.89 "Hg10 mi
4:00 PM90 °FSunny.17 mph29%29.89 "Hg10 mi
3:30 PM90 °FSunny.17 mph29%29.89 "Hg10 mi
3:00 PM90 °FPassing clouds.20 mph29%29.92 "HgN/A
Weather by CustomWeather, © 2015

See weather overviewHow to use our weather pages